Simultaneous Nadir Overpasses (SNOs) Predictions

Prediction of SNOs between GOES-15 and METOP-B Satellite Orbit:

Table of predicted SNOs for the next 14.0 days since TLE Epoch: 12/2/2023
Index Date Time (GOES-15) GOES-15 Lat,Lon METOP-B Lat,Lon Distance(km) Time Diff (sec)
1 12/02/2023 17:38:10 0.18, 61.32 -0.63, 57.68 414.64 80
2 12/03/2023 17:14:49 0.18, 61.31 0.52, 62.67 156.50 80
3 12/05/2023 05:33:39 -0.17, 61.19 0.50, 58.12 349.74 80
4 12/06/2023 05:15:37 -0.17, 61.16 -0.60, 63.12 222.26 80
5 12/07/2023 17:34:34 0.16, 61.22 -0.44, 58.53 306.45 80
6 12/08/2023 17:11:13 0.17, 61.20 0.66, 63.53 264.32 80
7 12/10/2023 05:30:02 -0.16, 61.10 0.33, 58.97 243.44 80
8 12/11/2023 05:12:01 -0.16, 61.08 -0.77, 63.97 327.92 80
9 12/12/2023 17:30:58 0.15, 61.14 -0.24, 59.37 201.21 80
10 12/13/2023 17:07:37 0.15, 61.14 0.88, 64.37 368.64 80
11 12/15/2023 05:26:25 -0.14, 61.06 0.15, 59.82 141.30 80
